DW3733 Luzzi (cosenza) IT current weather conditions

sailwx.info

Wind from 004

Air temperature 26.7° C
Dewpoint 19.3° C

Last reported at 2017-Jun-27 06:03 UTC.
Time now 2017-Jun-27 06:57 UTC

Location: N 39°27' E 016°16'.
View on Google Maps.

See reports from other nearby stations

  
Tides and Currents Weather Stations Pressure Air Temp Water Temp Dewpoint Dewpoint Depression Visibility Wind Speed Wind Dir Waves Ship Positions
date/time (UTC)wind fromknots sea level pressurealtimeterstation pressurevisibilityair tempwater tempwave heightnotes
2017-Jun-27 06:03 004 26.7
2017-Jun-27 05:53 090 0 gusting 1 26.1
2017-Jun-27 05:43 156 0 gusting 2 25.0
2017-Jun-27 05:33 225 0 gusting 2 25.0
2017-Jun-27 05:23 190 0 gusting 0 24.4
2017-Jun-27 05:13 302 23.3
2017-Jun-27 05:03 225 23.3
2017-Jun-27 04:53 343 22.8
2017-Jun-27 04:43 045 0 gusting 1 21.7
2017-Jun-27 04:33 090 20.6
2017-Jun-27 04:23 127 0 gusting 2 20.0
2017-Jun-27 04:13 135 1 gusting 2 20.0
2017-Jun-27 04:03 090 2 gusting 2 19.4
2017-Jun-27 03:53 120 0 gusting 1 20.6
2017-Jun-27 03:43 20.6
2017-Jun-27 03:33 090 20.0
2017-Jun-27 03:23 060 0 gusting 2 20.0
2017-Jun-27 03:13 090 0 gusting 2 20.0
2017-Jun-27 03:03 120 0 gusting 4 20.6
2017-Jun-27 02:53 103 0 gusting 2 20.6
2017-Jun-27 02:43 091 1 gusting 2 20.6
2017-Jun-27 02:33 074 0 gusting 2 20.6
2017-Jun-27 02:23 112 2 gusting 5 20.0
2017-Jun-27 02:13 090 2 gusting 2 20.6
2017-Jun-27 02:03 090 0 gusting 1 20.6
2017-Jun-27 01:53 055 0 gusting 4 20.6
2017-Jun-27 01:43 135 0 gusting 1 20.6
2017-Jun-27 01:33 056 0 gusting 2 20.6
2017-Jun-27 01:23 090 1 gusting 4 20.6
2017-Jun-27 01:13 094 1 gusting 2 20.6
2017-Jun-27 01:03 090 2 gusting 2 20.6
2017-Jun-27 00:53 111 20.6
2017-Jun-27 00:43 110 0 gusting 2 21.7
2017-Jun-27 00:33 061 1 gusting 2 22.2
2017-Jun-27 00:23 045 1 gusting 2 22.2
2017-Jun-27 00:13 083 1 gusting 2 21.7
2017-Jun-27 00:03 090 0 gusting 2 21.7
2017-Jun-26 23:53 077 0 gusting 1 21.7
2017-Jun-26 23:43 255 21.7
2017-Jun-26 23:33 135 0 gusting 2 22.8
2017-Jun-26 23:23 083 0 gusting 1 22.8
2017-Jun-26 23:13 318 0 gusting 2 22.8
2017-Jun-26 23:03 083 0 gusting 4 22.8
2017-Jun-26 22:53 045 0 gusting 1 22.8
2017-Jun-26 22:43 120 0 gusting 1 22.8
2017-Jun-26 22:33 103 0 gusting 2 22.2
2017-Jun-26 22:23 135 1 gusting 2 23.3
2017-Jun-26 22:13 124 0 gusting 2 23.3
2017-Jun-26 22:03 120 1 gusting 2 23.9
2017-Jun-26 21:53 116 0 gusting 2 23.9
2017-Jun-26 21:43 135 1 gusting 2 24.4
2017-Jun-26 21:33 090 1 gusting 2 24.4
2017-Jun-26 21:23 113 2 gusting 4 24.4
2017-Jun-26 21:13 135 1 gusting 2 25.0
2017-Jun-26 21:03 090 1 gusting 2 26.1
2017-Jun-26 20:53 229 0 gusting 5 26.7
2017-Jun-26 20:43 219 26.7
2017-Jun-26 20:33 003 0 gusting 2 26.7
2017-Jun-26 20:23 284 27.2
2017-Jun-26 20:13 135 0 gusting 4 27.8
2017-Jun-26 20:03 225 2 gusting 5 28.3
2017-Jun-26 19:33 195 0 gusting 2 28.9
2017-Jun-26 19:13 060 0 gusting 2 29.4
2017-Jun-26 19:03 280 29.4
2017-Jun-26 18:53 178 0 gusting 2 28.9
2017-Jun-26 18:43 090 1 gusting 2 30.0
2017-Jun-26 18:33 358 1 gusting 4 31.1
2017-Jun-26 18:23 340 0 gusting 2 31.1
2017-Jun-26 18:13 330 0 gusting 2 31.7
2017-Jun-26 18:03 32.2
2017-Jun-26 17:53 070 1 gusting 5 32.8
2017-Jun-26 17:43 348 1 gusting 5 32.8
2017-Jun-26 17:33 145 2 gusting 6 32.8
2017-Jun-26 17:23 33.3
2017-Jun-26 17:13 338 2 gusting 6 33.3
2017-Jun-26 17:03 019 1 gusting 6 33.9
2017-Jun-26 16:53 33.9
2017-Jun-26 16:43 34.4
2017-Jun-26 16:33 007 2 gusting 6 34.4
2017-Jun-26 16:23 34.4
2017-Jun-26 16:13 338 2 gusting 6 33.9
2017-Jun-26 16:03 292 3 gusting 8 33.9
2017-Jun-26 15:53 111 3 gusting 8 33.3
2017-Jun-26 15:43 030 3 gusting 10 33.3
2017-Jun-26 15:33 045 4 gusting 7 33.9
2017-Jun-26 15:23 024 4 gusting 11 35.0
2017-Jun-26 15:13 309 5 gusting 10 35.6
2017-Jun-26 15:03 346 3 gusting 6 35.6
2017-Jun-26 14:53 348 4 gusting 11 35.6
2017-Jun-26 14:43 35.0
2017-Jun-26 14:33 35.6
2017-Jun-26 14:23 004 4 gusting 7 36.7
2017-Jun-26 14:13 36.7
2017-Jun-26 14:03 319 2 gusting 6 36.7
2017-Jun-26 13:53 056 2 gusting 6 37.2
2017-Jun-26 13:43 37.8
2017-Jun-26 13:33 347 1 gusting 5 37.8
2017-Jun-26 13:23 045 2 gusting 6 37.8
2017-Jun-26 13:13 068 1 gusting 7 37.2
2017-Jun-26 13:03 026 2 gusting 6 37.2
2017-Jun-26 12:53 165 1 gusting 7 37.2
2017-Jun-26 12:43 016 2 gusting 6 37.2
2017-Jun-26 12:33 294 1 gusting 7 36.7
2017-Jun-26 12:23 36.7
2017-Jun-26 12:13 326 2 gusting 6 36.7
2017-Jun-26 12:03 331 5 gusting 11 37.2
2017-Jun-26 11:53 090 2 gusting 6 36.7
2017-Jun-26 11:43 045 1 gusting 6 36.7
2017-Jun-26 11:33 359 2 gusting 7 36.1
2017-Jun-26 11:23 36.7
2017-Jun-26 11:13 36.1
2017-Jun-26 11:03 282 1 gusting 6 35.6
2017-Jun-26 10:53 020 1 gusting 5 36.1
2017-Jun-26 10:43 012 1 gusting 6 35.6
2017-Jun-26 10:33 35.0
2017-Jun-26 10:23 35.0
2017-Jun-26 10:13 185 1 gusting 5 35.0
2017-Jun-26 10:03 050 2 gusting 6 35.0
2017-Jun-26 09:53 289 0 gusting 4 34.4
2017-Jun-26 09:43 031 1 gusting 5 33.9
2017-Jun-26 09:33 063 0 gusting 5 34.4
2017-Jun-26 09:23 353 0 gusting 4 34.4
2017-Jun-26 09:13 228 1 gusting 2 33.9
2017-Jun-26 09:03 257 0 gusting 4 33.3
2017-Jun-26 08:53 206 1 gusting 6 32.8
2017-Jun-26 08:43 315 0 gusting 6 32.8
2017-Jun-26 08:33 153 1 gusting 6 32.2
2017-Jun-26 08:23 217 3 gusting 6 32.8
2017-Jun-26 08:13 328 0 gusting 5 32.2
2017-Jun-26 08:03 180 1 gusting 5 31.7
2017-Jun-26 07:53 308 1 gusting 5 31.7
2017-Jun-26 07:43 193 1 gusting 5 31.1
2017-Jun-26 07:33 315 1 gusting 6 30.6
2017-Jun-26 07:23 253 3 gusting 6 30.6
2017-Jun-26 07:13 225 2 gusting 6 30.0
2017-Jun-26 07:03 192 1 gusting 4 29.4
2017-Jun-26 06:53 264 1 gusting 2 29.4
2017-Jun-26 06:43 267 0 gusting 2 28.9
2017-Jun-26 06:33 225 0 gusting 2 28.3
2017-Jun-26 06:23 135 0 gusting 2 27.8
2017-Jun-26 06:13 185 0 gusting 2 26.7
2017-Jun-26 06:03 298 0 gusting 2 26.7
2017-Jun-26 05:53 225 1 gusting 4 26.1
2017-Jun-26 05:43 203 1 gusting 4 26.1
2017-Jun-26 05:33 270 0 gusting 2 26.1
2017-Jun-26 05:23 218 0 gusting 2 25.6
2017-Jun-26 05:13 268 0 gusting 2 25.0
2017-Jun-26 05:03 105 0 gusting 2 23.9
2017-Jun-26 04:53 068 1 gusting 2 23.3
2017-Jun-26 04:43 117 22.8
2017-Jun-26 04:33 21.7
2017-Jun-26 04:23 091 1 gusting 5 21.1
2017-Jun-26 04:13 120 2 gusting 4 21.1
2017-Jun-26 04:03 090 0 gusting 2 22.8
2017-Jun-26 03:53 257 0 gusting 2 23.3
2017-Jun-26 03:43 309 0 gusting 5 23.3
2017-Jun-26 03:33 259 0 gusting 2 23.3
2017-Jun-26 03:23 225 1 gusting 2 23.3
2017-Jun-26 03:13 266 1 gusting 6 23.3
2017-Jun-26 03:03 156 1 gusting 6 22.2
2017-Jun-26 02:53 135 0 gusting 2 22.2
2017-Jun-26 02:43 204 0 gusting 1 22.2
2017-Jun-26 02:33 216 22.2
2017-Jun-26 02:23 135 0 gusting 2 21.7
2017-Jun-26 02:13 249 1 gusting 2 21.1
2017-Jun-26 02:03 270 0 gusting 4 20.6
2017-Jun-26 01:53 140 1 gusting 2 20.6
2017-Jun-26 01:43 109 1 gusting 4 20.6
2017-Jun-26 01:33 119 0 gusting 2 22.8
2017-Jun-26 01:23 359 0 gusting 2 22.2
2017-Jun-26 01:13 129 1 gusting 2 21.7
2017-Jun-26 01:03 118 1 gusting 4 21.1
2017-Jun-26 00:53 090 20.6
2017-Jun-26 00:43 135 0 gusting 4 21.7
2017-Jun-26 00:33 090 2 gusting 4 22.2
2017-Jun-26 00:23 319 0 gusting 6 23.3
2017-Jun-26 00:13 192 0 gusting 2 22.8
2017-Jun-26 00:03 135 0 gusting 4 23.9
2017-Jun-25 23:53 251 0 gusting 4 23.9
2017-Jun-25 23:43 214 1 gusting 2 23.9
2017-Jun-25 23:33 227 1 gusting 2 23.9
2017-Jun-25 23:23 196 1 gusting 4 23.9
2017-Jun-25 23:13 315 0 gusting 2 24.4
2017-Jun-25 23:03 250 0 gusting 2 24.4
2017-Jun-25 22:53 223 0 gusting 5 24.4
2017-Jun-25 22:43 199 1 gusting 5 25.0
2017-Jun-25 22:33 237 0 gusting 4 25.0
2017-Jun-25 22:23 294 1 gusting 5 25.0
2017-Jun-25 22:13 242 0 gusting 4 25.0
2017-Jun-25 22:03 202 0 gusting 4 25.6
2017-Jun-25 21:53 180 1 gusting 2 25.6
2017-Jun-25 21:43 211 1 gusting 5 26.1
2017-Jun-25 21:33 273 0 gusting 5 25.6
2017-Jun-25 21:23 196 1 gusting 2 25.6
2017-Jun-25 21:13 180 1 gusting 4 26.1
2017-Jun-25 21:03 268 1 gusting 2 26.1
2017-Jun-25 20:53 191 1 gusting 4 26.1
2017-Jun-25 20:43 156 26.7
2017-Jun-25 20:33 304 1 gusting 5 26.7
2017-Jun-25 20:23 192 1 gusting 2 26.1
2017-Jun-25 20:13 279 0 gusting 2 27.2
2017-Jun-25 20:03 225 0 gusting 4 27.2
2017-Jun-25 19:53 215 1 gusting 5 27.2
2017-Jun-25 19:43 153 1 gusting 5 27.8
2017-Jun-25 19:33 254 2 gusting 6 28.3
2017-Jun-25 19:23 183 2 gusting 5 28.9
2017-Jun-25 19:13 245 1 gusting 6 29.4
2017-Jun-25 19:03 256 0 gusting 5 29.4
2017-Jun-25 18:53 215 2 gusting 6 30.0
2017-Jun-25 18:43 241 4 gusting 6 30.0
2017-Jun-25 18:33 225 4 gusting 6 30.6
2017-Jun-25 18:23 258 2 gusting 8 31.1
2017-Jun-25 18:13 248 3 gusting 6 31.1
2017-Jun-25 18:03 269 4 gusting 10 31.7
2017-Jun-25 17:53 225 5 gusting 8 32.2
2017-Jun-25 17:43 180 4 gusting 8 32.8
2017-Jun-25 17:33 304 2 gusting 5 33.3
2017-Jun-25 17:23 269 1 gusting 6 33.3
2017-Jun-25 17:13 225 2 gusting 5 33.3
2017-Jun-25 17:03 270 2 gusting 8 33.3
2017-Jun-25 16:53 143 4 gusting 7 33.9
2017-Jun-25 16:43 239 2 gusting 6 33.9
2017-Jun-25 16:33 315 2 gusting 5 34.4
2017-Jun-25 16:23 298 0 gusting 2 34.4
2017-Jun-25 16:13 175 0 gusting 5 35.0
2017-Jun-25 16:03 326 1 gusting 6 35.0
2017-Jun-25 15:53 35.6
2017-Jun-25 15:43 35.6
2017-Jun-25 15:33 36.1
2017-Jun-25 15:23 36.7
2017-Jun-25 15:13 005 2 gusting 8 36.7
2017-Jun-25 15:03 035 2 gusting 8 36.7
2017-Jun-25 14:53 024 6 gusting 8 36.7
2017-Jun-25 14:43 075 3 gusting 8 37.2
2017-Jun-25 14:33 292 2 gusting 7 37.8
2017-Jun-25 14:23 37.8
2017-Jun-25 14:13 37.8
2017-Jun-25 14:03 37.8
2017-Jun-25 13:53 37.8
2017-Jun-25 13:43 349 2 gusting 8 37.8
2017-Jun-25 13:33 323 3 gusting 8 37.8
2017-Jun-25 13:23 322 2 gusting 8 37.2
2017-Jun-25 13:13 017 3 gusting 8 37.8
2017-Jun-25 13:03 032 2 gusting 5 38.3
2017-Jun-25 12:53 028 1 gusting 10 37.8
2017-Jun-25 12:43 37.8
2017-Jun-25 12:33 37.2
2017-Jun-25 12:23 031 3 gusting 6 37.8
2017-Jun-25 12:13 009 4 gusting 10 37.8
2017-Jun-25 12:03 338 5 gusting 7 37.8
2017-Jun-25 11:53 37.2
2017-Jun-25 11:43 37.2
2017-Jun-25 11:33 070 4 gusting 6 37.8
2017-Jun-25 11:23 018 2 gusting 6 37.2
2017-Jun-25 11:13 004 2 gusting 6 37.2
2017-Jun-25 11:03 045 1 gusting 5 37.2
2017-Jun-25 10:53 108 1 gusting 4 37.8
2017-Jun-25 10:43 063 1 gusting 5 37.2
2017-Jun-25 10:33 084 1 gusting 5 37.2
2017-Jun-25 10:23 020 0 gusting 4 36.7
2017-Jun-25 10:13 277 1 gusting 4 36.7
2017-Jun-25 10:03 270 0 gusting 5 36.1
2017-Jun-25 09:53 261 1 gusting 5 36.7
2017-Jun-25 09:43 315 0 gusting 4 36.7
2017-Jun-25 09:33 264 1 gusting 2 35.6
2017-Jun-25 09:23 270 0 gusting 2 35.6
2017-Jun-25 09:13 324 0 gusting 4 35.6
2017-Jun-25 09:03 201 2 gusting 5 35.0
2017-Jun-25 08:53 358 1 gusting 5 34.4
2017-Jun-25 08:43 225 2 gusting 5 34.4
2017-Jun-25 08:33 260 0 gusting 5 33.9
2017-Jun-25 08:23 238 1 gusting 5 33.3
2017-Jun-25 08:13 225 2 gusting 4 32.8
2017-Jun-25 08:03 355 0 gusting 4 32.2
2017-Jun-25 07:53 181 1 gusting 5 31.7
2017-Jun-25 07:43 225 1 gusting 5 31.1
2017-Jun-25 07:33 225 2 gusting 5 31.1
2017-Jun-25 07:23 105 1 gusting 5 30.6
2017-Jun-25 07:13 095 1 gusting 4 30.0
2017-Jun-25 07:03 240 0 gusting 4 30.0
2017-Jun-25 06:53 116 0 gusting 2 29.4
2017-Jun-25 06:43 225 0 gusting 2 28.9
2017-Jun-25 06:33 238 0 gusting 2 28.3
2017-Jun-25 06:23 283 27.8
2017-Jun-25 06:13 135 0 gusting 2 27.8
2017-Jun-25 06:03 292 0 gusting 2 27.2